Regional Weather Roundup
Issued by NWS

Home | Current Version | Previous Version | Text Only | Print | Product List | Glossary On
Versions: 1 2 3 4 5 6 7 8 9 10 11 12 13 14 15 16 17 18 19 20 21 22 23 24 25 26 27 28 29 30 31 32 33 34 35 36 37 38 39 40 41 42 43 44 45 46 47 48 49
000
ASUS45 KBOI 281610
RWRID
WEATHER ROUNDUP FOR IDAHO
NATIONAL WEATHER SERVICE BOISE ID
1000 AM MDT SAT MAR 28 2015

NOTE: "FAIR" INDICATES FEW OR NO CLOUDS BELOW 12000 FEET
WITH NO SIGNIFICANT WEATHER AND/OR OBSTRUCTIONS TO VISIBILITY

IDZ012-014-281700-
SOUTHWEST IDAHO


CITY           SKY/WX    TMP DP  RH WIND       PRES   REMARKS
BOISE          SUNNY     51  36  56 NW22G29   30.23R
CALDWELL       SUNNY     52  32  46 W16       30.26R
MOUNTAIN HOME  MOSUNNY   52  37  54 NW32G41   30.19R
$$

IDZ016-017-281700-
SOUTHCENTRAL IDAHO


CITY           SKY/WX    TMP DP  RH WIND       PRES   REMARKS
BURLEY         LGT RAIN  59  30  33 W25G40    30.11R
JEROME         MOSUNNY   53  38  56 W30G39    30.16R
TWIN FALLS     PTSUNNY   54  37  52 W28G39    30.17R
$$

IDZ019>023-281700-
SOUTHEAST IDAHO


CITY           SKY/WX    TMP DP  RH WIND       PRES   REMARKS
IDAHO FALLS    MOSUNNY   58  32  37 SW29G36   30.02S
POCATELLO      SUNNY     60  31  33 SW30G37   30.07S
REXBURG        MOSUNNY   57  31  37 SW20G37   29.98F
$$

IDZ006-010-011-018-031-032-281700-
CENTRAL IDAHO MOUNTAINS


CITY           SKY/WX    TMP DP  RH WIND       PRES   REMARKS
MCCALL         MOSUNNY   42  34  73 NW3       30.16R
HAILEY         MOSUNNY   54  36  50 S10       30.08S
STANLEY          N/A     41  32  70 NW8G18    30.13R
SALMON         CLOUDY    45  36  70 N14       30.02R
CHALLIS        LGT RAIN  49  37  63 W23G32    30.00R
$$

IDZ002-004-006-007-026-281700-
NORTHERN IDAHO


CITY           SKY/WX    TMP DP  RH WIND       PRES   REMARKS
LEWISTON       SUNNY     54  34  46 W16G28    30.16R
LOWELL           N/A     46  44  93 CALM      30.18R
COEUR D`ALENE  PTSUNNY   45  34  65 W18G28    30.04R
MULLAN PASS    SNOW      30  30 100 W10G18    29.97R VSB 1/4 WCI  21
$$


USA.gov is the U.S. government's official web portal to all federal, state and local government web resources and services.